Regional Weather Roundup
Issued by NWS Upton, NY

Current Version | Previous Version | Text Only | Print | Product List | Glossary On
Versions: 1 2 3 4 5 6 7 8 9 10 11 12 13 14 15 16 17 18 19 20 21 22 23 24 25 26 27 28 29
000
ASUS41 KOKX 301505
RWROKX
REGIONAL WEATHER ROUNDUP
NATIONAL WEATHER SERVICE NEW YORK NY
1100 AM EDT THU OCT 30 2014

NOTE: "FAIR" INDICATES FEW OR NO CLOUDS BELOW 12,000 FEET WITH NO
SIGNIFICANT WEATHER AND/OR OBSTRUCTIONS TO VISIBILITY.

NYZ071-072-176-178-NJZ106-104-301600-
NEW YORK CITY METRO AREA


CITY           SKY/WX    TMP DP  RH WIND       PRES   REMARKS
CENTRAL PARK   SUNNY     53  38  56 VRB5      30.02F
LAGUARDIA APRT MOSUNNY   54  40  59 NW12      29.99F
KENNEDY INTL   MOSUNNY   57  38  48 NW14      30.00S
NEWARK/LIBERTY MOSUNNY   56  39  53 N12       30.00F
BRNX BOT. GARD   N/A     54  39  58 NW5       30.00F
TETERBORO      SUNNY     56  40  55 NW8       29.99S
$$

NYZ177-179-078>081-301600-
LONG ISLAND NEW YORK

CITY           SKY/WX    TMP DP  RH WIND       PRES   REMARKS
FARMINGDALE    PTSUNNY   56  44  64 N7        29.99S
ISLIP          MOSUNNY   57  44  62 NW9       29.97S
SHIRLEY        PTSUNNY   58  45  62 N9        29.99S
WESTHAMPTON    MOSUNNY   56  42  59 N8        29.99S
MONTAUK POINT    N/A     57  42  57 NW8       29.98S
$$

NYZ052-065-067-301600-
HUDSON VALLEY

CITY           SKY/WX    TMP DP  RH WIND       PRES   REMARKS
WHITE PLAINS   MOSUNNY   51  41  68 NW8       29.98S
NEWBURGH       MOSUNNY   52  41  66 NW17      30.00F
MONTGOMERY     SUNNY     52  38  58 NW10G20   30.00R
POUGHKEEPSIE   MOSUNNY   54  43  66 VRB3      29.99S
ALBANY         PTSUNNY   50  38  63 NW12      29.99F
$$

NJZ001-105-106-008-010-013-015-019>022-104-301600-
NEW JERSEY

CITY           SKY/WX    TMP DP  RH WIND       PRES   REMARKS
NEWARK/LIBERTY MOSUNNY   56  39  53 N12       30.00F
TETERBORO      SUNNY     56  40  55 NW8       29.99S
CALDWELL       SUNNY     53  38  56 NW8       30.01S
MORRISTOWN     NOT AVBL
SOMERVILLE     SUNNY     54  39  57 N10       30.00F
SUSSEX         PTSUNNY   52  41  66 N8        30.02R
ANDOVER          N/A     45  44  97 CALM      30.02F
TRENTON        SUNNY     53  40  61 N10       30.02S
MILLVILLE      CLOUDY    52  43  71 N8        30.03S
ATLANTIC CITY  CLOUDY    55  43  63 N10       30.02S
WRIGHTSTOWN    SUNNY     54  42  62 NW9       30.00S
TOMS RIVER     SUNNY     54  43  66 N7        30.01F
BELMAR         SUNNY     54  39  58 NW10      30.00S
$$

PAZ047>061-062-071-301600-
EASTERN PENNSYLVANIA

CITY           SKY/WX    TMP DP  RH WIND       PRES   REMARKS
PHILADELPHIA   MOSUNNY   56  39  53 N10       30.03S
ALLENTOWN      MOSUNNY   52  41  66 NW6       30.03F
SCRANTON       CLOUDY    48  34  58 NW13      30.03S
$$

CTZ002-004>006-009-010-012-RIZ004-006-007-MAZ004-011-015-301600-
SOUTHERN NEW ENGLAND
 IN CT

CITY           SKY/WX    TMP DP  RH WIND       PRES   REMARKS
BRADLEY INTL   MOSUNNY   55  40  56 NW7G16    29.96F
HARTFORD       SUNNY     54  40  59 VRB7      29.98F
DANBURY        MOSUNNY   52  40  63 VRB5      29.99F
WTRBRY/OXFORD  PTSUNNY   52  37  58 NW9       29.98F
BRIDGEPORT     PTSUNNY   57  41  55 N12       29.98S
MERIDEN        PTSUNNY   55  38  52 NW9       29.98S
NEW HAVEN      CLOUDY    58  41  53 N12G20    29.98S
CHESTER        FAIR      54  37  54 NW10      29.98S
GROTON         SUNNY     57  40  52 NW10      29.96F
WILLIMANTIC    MOSUNNY   54  38  54 NW12G18   29.97F

 IN RI

CITY           SKY/WX    TMP DP  RH WIND       PRES   REMARKS
PROVIDENCE     MOSUNNY   56  38  50 NW12      29.96S
BLOCK ISLAND   SUNNY     55  39  54 NW8       29.97R
WESTERLY       SUNNY     56  39  53 VRB7      29.97S

 IN MA

CITY           SKY/WX    TMP DP  RH WIND       PRES   REMARKS
BOSTON         MOSUNNY   56  40  55 NW12G20   29.93S
WORCESTER      SUNNY     49  39  68 W10       29.95S
WESTFIELD      SUNNY     54  38  54 NW7G18    29.97S
PROVINCETOWN   SUNNY     55   1  11 NW8       29.94S
NANTUCKET      MOSUNNY   57  45  64 NW9       29.94S
$$

ANZ330-335-338-340-345-350-353-355-301600-
COASTAL MARINE OBSERVATIONS


STATION/POSITION TIME  SKY/WX   TEMP    WIND        PRES    VSBY  WAVE
                                AIR SEA DIR/SP/G                  HT/PER
                 (UTC)          (F)     (DEG/KT/KT) (MB)    (MI)  (FT/S)
NY HARB ENTRANCE 1500            54 61  310/ 12/ 14 1015.8          2/ 6
4S FIRE IS       1500               62                N/A           2/ 6
20S FIRE ISLAND  1500            56 62  350/  6/  8 1015.1          2/ 6
23SW MTP         1500                                 N/A           2/ 6
HUDSON CANYON    1500            59 64  320/  4/  6 1015.0          3/ 4
EXECUTION ROCKS  1500            55 60  340/ 10/ 14   N/A
WESTERN LI SOUND 1500            53     340/ 10/ 14   N/A           0
CENTRAL LI SOUND 1400            53 61  360/ 12/ 14   N/A           1
EASTERN LI SOUND 1400            59 62  340/ 10/ 14   N/A
ROBBINS REEF     1500            53     360/ 13/ 16 1014.7
$$


>>>>>>>>>>>>>>>>>>>>>>>>>>>> KEY <<<<<<<<<<<<<<<<<<<<<<<<<<<
>                                                          <
>     SKY/WX - SKY CONDITION/PRESENT WEATHER               <
>     TMP    - TEMPERATURE IN FAHRENHEIT                   <
>     DP     - DEWPOINT IN FAHRENHEIT                      <
>     RH     - RELATIVE HUMIDITY IN PERCENT                <
>     WIND   - DIRECTION AND SPEED IN MPH                  <
>     PRES   - MEAN SEA LEVEL PRESSURE IN INCHES OF HG     <
>     WCI    - WIND CHILL INDEX                            <
>     VSB    - VISIBILITY IN MILES                         <
>     HX     - HEAT INDEX                                  <
>     TC     - TEMPERATURE IN CELSIUS                      <
>     VRB    - VARIABLE WIND DIRECTION                     <
>                                                          <
>>>>>>>>>>>>>>>>>>>>>>>>>>>> KEY <<<<<<<<<<<<<<<<<<<<<<<<<<<





USA.gov is the U.S. government's official web portal to all federal, state and local government web resources and services.